GW4861 Weather Reports


Display with metric or nautical units.
time (UTC)temp
F
wind
direction
speed
MPH
gust
MPH
rain 1hr
in
rain 24hr
in
rain mn
in
humidity
%
barometer
mb
20260504213018 71 233 10.0 17.0 0.00 0.00 0.00 29 1005.3
20260504211530 71 226 9.0 20.0 0.00 0.00 0.00 30 1005.3
20260504210024 71 273 13.0 21.0 0.00 0.00 0.00 29 1005.2
20260504204536 71 264 14.0 23.0 0.00 0.00 0.00 29 1005.2
20260504203019 72 249 9.0 19.0 0.00 0.00 0.00 28 1005.2
20260504201504 71 323 6.0 15.0 0.00 0.00 0.00 28 1005.2
20260504200007 71 239 11.0 21.0 0.00 0.00 0.00 28 1005.2
20260504194512 71 276 14.0 24.0 0.00 0.00 0.00 27 1005.4
20260504193020 71 250 11.0 21.0 0.00 0.00 0.00 27 1005.3
20260504191522 71 245 13.0 23.0 0.00 0.00 0.00 28 1005.4
20260504190011 70 250 13.0 23.0 0.00 0.00 0.00 27 1005.5
20260504184510 70 258 13.0 25.0 0.00 0.00 0.00 27 1005.6
20260504183013 69 255 12.0 27.0 0.00 0.00 0.00 28 1005.7
20260504181521 69 266 12.0 25.0 0.00 0.00 0.00 28 1005.9
20260504180022 69 259 14.0 25.0 0.00 0.00 0.00 27 1005.8
20260504174507 68 263 15.0 27.0 0.00 0.00 0.00 28 1006.0
20260504173012 67 287 14.0 25.0 0.00 0.00 0.00 29 1006.4
20260504171516 67 305 9.0 27.0 0.00 0.00 0.00 30 1006.2
20260504081519 44 226 0.0 2.0 0.00 0.05 0.00 60 1009.2
20260504050018 38 245 0.0 0.0 0.00 0.05 0.00 70 1009.2
20260504044529 38 245 0.0 0.0 0.00 0.05 0.00 70 1009.3
20260504043034 38 245 0.0 0.0 0.00 0.05 0.00 69 1009.3
20260504041527 39 245 0.0 0.0 0.00 0.05 0.00 68 1009.3
20260504040026 39 245 1.0 2.0 0.00 0.05 0.00 67 1009.2
20260504034520 40 245 1.0 2.0 0.00 0.05 0.05 66 1009.1
20260504033022 40 250 2.0 3.0 0.00 0.05 0.05 64 1009.0
20260504031526 41 242 0.0 2.0 0.00 0.05 0.05 63 1009.0
20260504030026 41 242 1.0 2.0 0.00 0.05 0.05 63 1009.0
20260504024528 41 240 2.0 3.0 0.00 0.05 0.05 63 1009.0
20260504023022 42 258 0.0 2.0 0.00 0.05 0.05 61 1008.9
20260504021505 42 249 1.0 3.0 0.00 0.05 0.05 61 1008.9
20260504020009 43 250 1.0 2.0 0.00 0.05 0.05 58 1008.8
20260504014514 43 250 1.0 2.0 0.00 0.05 0.05 57 1008.6
20260504013020 45 250 1.0 3.0 0.00 0.05 0.05 54 1008.5
20260504011522 46 250 2.0 3.0 0.00 0.05 0.05 51 1008.4
20260504010007 47 278 0.0 0.0 0.00 0.05 0.05 49 1008.3
20260504004517 48 278 0.0 0.0 0.00 0.05 0.05 46 1008.1
20260504003014 49 278 1.0 2.0 0.00 0.05 0.05 44 1007.9
20260504001524 49 302 1.0 3.0 0.00 0.05 0.05 42 1007.8
20260504000024 50 285 2.0 7.0 0.00 0.05 0.05 41 1007.6
20260503234515 51 323 3.0 7.0 0.00 0.05 0.05 39 1007.5
20260503233012 51 281 4.0 11.0 0.00 0.05 0.05 39 1007.4
20260503231520 51 292 5.0 14.0 0.00 0.05 0.05 38 1007.2
20260503230022 52 25 4.0 14.0 0.00 0.05 0.05 37 1007.1
20260503224527 52 279 9.0 14.0 0.00 0.05 0.05 37 1007.0
20260503223012 52 30 6.0 21.0 0.00 0.05 0.05 36 1006.7
20260503221515 53 291 5.0 14.0 0.00 0.05 0.05 36 1006.5
20260503220021 51 318 4.0 21.0 0.00 0.05 0.05 37 1006.3
20260503214537 52 277 7.0 18.0 0.00 0.05 0.05 37 1006.4